X-SAT

Last updated on Fri Jul 11 2025 00:03:28 GMT+0000 (Coordinated Universal Time)

1 37389U 11015C 25191.58795114 .00000061 00000+0 43509-4 0 9997 2 37389 98.3127 180.6846 0012783 266.1825 93.7894 14.25049504739021
UTC large
Height (km)
Speed (km/s)
/
Latitude / Longitude
Inclination (degrees)
Orbital Period (minutes)
Azimuth
Elevation
Range (km)
Doppler Factor

Next 0 passes for location: London (51.5072 / 0.1276)

Sorry there are no passes over London.